Location: Newark
(50.4348°N, 30.5552°E)
Time: 23:48:53
(UTC+00:00)

Envisat - Pass Details

Date: 14 December 2019
Orbit: 764 x 766 km, 98.1° (Epoch: 21 January)

Event Time Altitude Azimuth Distance (km) Brightness Sun altitude
Rises 16:48:22 0° 198° (SSW) 3,222 6.5 -26.5°
Reaches altitude 10° 16:51:01 10° 211° (SSW) 2,301 5.9 -26.9°
Maximum altitude 16:55:14 26° 268° (W) 1,476 5.1 -27.5°
Drops below altitude 10° 16:59:29 10° 324° (NW) 2,315 5.8 -28.2°
Sets 17:02:11 0° 337° (NNW) 3,247 6.5 -28.6°
